Vertical_Velocity
1 1 1 1 1 1 1 0 -0 -0 -1 -1 -1 -1 -1 -0 -0 -1 -1 -1 -1 -1 -1 -0 -0 -0 0 0 -0 -0 -0 -0 -0 -0 -0 -0 -1 -1 -1 -1 -1 -1 -2 -1 -1 -1 -1 -1 -1 -1 -1 -0 -0 -0 0 1 1 1 1 1 2 1 1 0 0 0 1 1 2
1 1 1 2 1 1 0 -0 -0 -1 -1 -1 -1 -1 -1 -1 -1 -1 -1 -1 -1 -1 -1 -0 -0 -0 -0 0 -0 -0 -1 -1 -1 -1 -1 -1 -1 -1 -1 -2 -1 -1 -1 -1 -1 -1 -0 -0 -0 -1 -1 -0 0 0 1 2 2 1 0 0 1 1 1 0 0 0 1 0 1
1 2 2 2 1 0 -0 -1 -1 -1 -1 -0 -0 -1 -1 -1 -1 -1 -1 -1 -1 -1 -1 -0 -0 -0 -0 -0 0 -0 -1 -1 -2 -2 -2 -2 -2 -2 -2 -2 -2 -1 -1 -0 -0 -0 0 0 -0 -0 -1 -1 -0 0 1 2 2 1 0 -0 0 0 0 -0 -0 0 0 -0 0
2 2 2 1 0 -0 -1 -1 -1 -1 -0 -0 -0 -1 -1 -1 -1 -1 -1 -0 -0 -0 -0 -0 -0 -0 -0 -0 -0 -0 -1 -1 -2 -3 -3 -3 -2 -2 -2 -2 -2 -1 -0 0 0 1 1 1 0 -0 -0 -0 -0 -0 0 1 1 1 0 0 0 -0 -0 -1 -0 0 -0 -0 0
2 2 1 0 -0 -1 -1 -1 -1 -0 -0 -0 -0 -1 -1 -1 -1 -1 -0 0 0 0 0 -0 -0 -0 -0 -1 -1 -1 -1 -1 -2 -3 -3 -3 -3 -2 -2 -1 -1 -1 -0 0 0 0 0 0 0 0 0 0 0 0 0 0 -0 -0 0 1 1 0 -1 -1 -1 -0 0 -1 -0
2 1 0 -1 -1 -1 -1 -0 -0 -0 -0 -0 -0 -1 -1 -1 -0 -0 0 0 0 0 0 -0 -0 -0 -1 -1 -1 -1 -2 -2 -2 -3 -3 -3 -3 -2 -1 -1 -1 -0 -0 0 0 0 0 -0 -0 -0 0 1 0 1 1 0 -0 -1 -1 -0 0 0 -0 -1 -1 -0 -0 -0 -0
1 0 -0 -1 -1 -1 -0 -0 0 0 0 -0 -0 -0 -0 0 0 0 0 0 0 0 0 -0 -0 -1 -1 -1 -2 -2 -2 -3 -3 -3 -3 -3 -2 -1 -1 -1 -1 -0 -0 -0 -0 0 0 -0 -1 -1 -0 0 -0 -0 0 1 -0 -1 -2 -1 -0 -0 -1 -1 -1 -0 -0 -0 -0
1 -0 -1 -1 -1 -0 -0 0 1 1 1 0 0 0 0 0 0 0 0 0 1 0 0 -0 -1 -1 -2 -2 -3 -3 -4 -4 -3 -3 -2 -2 -2 -1 -1 -1 -1 -0 0 0 -0 -0 -0 -0 -0 -1 -1 -1 -1 -1 -0 -0 -0 -1 -2 -2 -1 -1 -0 -1 -0 -0 -0 -0 -0
0 -0 -1 -1 -0 0 0 1 1 1 1 0 1 1 0 0 -0 -0 0 0 0 0 -0 -1 -2 -2 -3 -3 -4 -4 -4 -4 -3 -3 -2 -1 -1 -1 -1 -1 -1 -0 0 1 0 -0 -1 -1 -0 0 -0 -1 -1 -1 -1 -0 -1 -1 -1 -2 -2 -1 -0 0 0 1 1 0 -0
-0 -0 -0 -0 0 1 1 1 1 1 1 0 0 0 0 -0 -0 -0 -0 -0 -0 -0 -1 -2 -3 -3 -3 -3 -3 -3 -3 -3 -2 -2 -2 -1 -1 -1 -1 -1 -1 -1 -0 1 0 -0 -0 -1 -1 -0 0 0 -1 -1 -1 -0 -1 -1 -1 -1 -2 -2 -2 -0 1 1 1 1 0
-0 -0 0 1 1 1 1 1 1 1 1 0 0 0 -0 -0 -0 -1 -1 -1 -1 -2 -2 -3 -3 -3 -3 -2 -2 -2 -2 -2 -2 -2 -1 -1 -0 -0 -0 -0 -0 -0 -0 -0 0 -0 -0 -1 -1 -1 -0 1 -0 -0 -1 -0 -1 -1 -2 -1 -2 -2 -3 -2 1 2 1 1 0
0 1 1 1 1 1 1 1 1 1 1 0 0 -0 -0 -1 -1 -1 -1 -2 -2 -2 -2 -2 -3 -2 -2 -2 -1 -1 -1 -1 -1 -1 -1 -0 -0 0 0 0 0 -0 -0 -0 -0 -0 -0 -0 -1 -1 -1 -0 0 -0 -1 -1 -1 -2 -2 -2 -2 -2 -2 -2 -0 1 2 1 0
1 1 1 1 1 1 1 1 1 1 0 0 0 -0 -0 -1 -1 -2 -2 -2 -2 -2 -2 -2 -2 -1 -1 -1 -1 -1 -1 -1 -1 -0 -0 0 0 0 0 0 0 -0 -0 -0 -0 -0 -0 -0 -0 -1 -2 -1 -0 -0 -0 -1 -1 -2 -2 -3 -2 -2 -2 -2 -0 1 1 1 1
1 1 1 1 1 1 1 1 0 0 0 0 0 -0 -0 -1 -1 -2 -2 -2 -2 -2 -2 -1 -1 -1 -1 -1 -1 -1 -1 -1 -0 -0 -0 0 0 0 -0 -0 -0 -0 -0 -0 0 -0 -0 -0 -0 -0 -1 -2 -2 -1 -0 0 -0 -1 -2 -3 -3 -3 -2 -1 -0 0 1 0 0
1 1 1 1 1 1 1 0 0 0 -0 -0 -0 -0 -1 -1 -1 -2 -2 -2 -2 -2 -2 -1 -1 -0 -0 -0 -1 -1 -1 -0 -0 -0 -0 0 0 0 -0 -0 -0 -0 -1 -1 -0 0 0 0 -0 -0 -1 -2 -2 -2 -1 -0 -0 -0 -1 -1 -2 -2 -2 -1 0 1 1 -0 -1
1 1 1 1 1 1 0 0 -0 -0 -0 -0 -0 -1 -1 -1 -1 -1 -1 -1 -2 -2 -2 -1 -1 -0 -0 0 -0 -0 -0 -0 -0 -0 -0 -0 -0 -0 -0 -1 -1 -1 -1 -1 -1 0 1 1 0 -0 -1 -2 -2 -2 -1 -1 -0 -0 -0 -0 -1 -1 -1 -0 0 1 1 0 -1
1 1 1 1 1 0 0 -0 -0 -0 -1 -1 -1 -1 -1 -1 -1 -1 -1 -1 -2 -2 -2 -1 -1 -1 -0 0 1 0 -0 -0 -0 -0 -0 -0 -1 -1 -1 -1 -1 -1 -1 -1 -1 -1 -0 0 1 0 -0 -1 -1 -1 -1 -1 -1 -1 -1 -1 -0 -0 -0 0 1 1 0 0 -0
1 1 1 0 0 -0 -0 -0 -1 -1 -1 -1 -1 -1 -1 -1 -1 -1 -1 -1 -2 -2 -2 -1 -1 -0 -0 -0 0 0 -0 -1 -0 -0 -0 -0 -1 -1 -1 -1 -1 -1 -1 -1 -1 -1 -1 -1 -1 -0 -0 -0 -0 -0 -0 -0 -1 -1 -1 -1 -1 -1 -0 0 1 1 0 -0 -1
1 1 0 -0 -0 -0 -1 -1 -1 -1 -1 -1 -1 -1 -1 -1 -1 -1 -1 -1 -1 -2 -2 -2 -1 -0 -0 -0 -0 0 0 -0 -1 -1 -0 -0 -0 -1 -1 -2 -1 -1 -1 -1 -1 -1 -1 -1 -1 -1 -1 -1 -0 -0 0 -0 -1 -1 -2 -2 -2 -1 -0 -0 0 0 0 -0 -1
0 -0 -0 -0 -0 -1 -1 -1 -1 -1 -1 -1 -1 -1 -1 -1 -2 -2 -1 -1 -1 -1 -1 -1 -1 -1 -0 -0 -0 -0 0 0 -1 -1 -1 -1 -1 -1 -1 -2 -2 -1 -1 -0 -0 -0 -1 -1 -1 -1 -1 -1 -1 -1 -0 -1 -1 -2 -2 -2 -2 -1 -1 -0 -0 -0 -0 -0 -0
-0 -0 -1 -1 -1 -1 -1 -1 -1 -1 -0 -0 -1 -1 -1 -1 -1 -2 -2 -2 -1 -1 -1 -1 -1 -1 -1 -1 -1 -1 -0 0 -0 -1 -1 -1 -1 -1 -1 -2 -2 -2 -1 -0 -0 -0 -1 -1 -1 -0 -0 -0 -1 -2 -2 -2 -3 -3 -3 -3 -2 -2 -1 -1 -1 -1 -0 0 0
-1 -1 -1 -1 -1 -1 -1 -1 -1 -1 -1 -1 -1 -1 -1 -1 -1 -2 -2 -2 -1 -1 -1 -1 -1 -1 -1 -1 -1 -1 -1 -0 -0 -0 -1 -1 -1 -1 -1 -1 -2 -2 -1 -1 -0 -0 -1 -1 -1 -1 -1 -2 -2 -3 -4 -4 -5 -5 -5 -4 -4 -3 -2 -2 -1 -1 -0 0 0
-1 -1 -1 -1 -1 -1 -1 -1 -1 -1 -1 -1 -1 -1 -2 -2 -2 -2 -2 -1 -1 -1 -1 -1 -1 -0 -1 -1 -1 -1 -1 -1 -0 -0 -0 -0 -1 -1 -1 -1 -2 -2 -1 -0 -0 -1 -2 -3 -3 -2 -3 -4 -4 -4 -5 -5 -5 -6 -6 -6 -5 -4 -4 -3 -2 -1 -0 0 -0
-1 -1 -1 -1 -1 -1 -1 -1 -1 -1 -1 -1 -1 -2 -2 -2 -2 -2 -1 -1 -0 -0 -0 -0 -0 -0 -0 -0 -0 -1 -1 -2 -2 -1 -0 -0 -1 -1 -1 -1 -1 -1 -1 -0 0 -0 -1 -3 -4 -4 -4 -3 -3 -3 -3 -4 -4 -4 -4 -5 -5 -5 -4 -3 -1 -0 -0 -0 -0
-1 -1 -1 -1 -1 -1 -0 -1 -1 -1 -1 -1 -1 -2 -2 -2 -2 -1 -1 -1 -0 -0 -0 -0 -0 -0 -0 -0 0 0 0 -1 -1 -2 -2 -1 -1 -1 -1 -1 -1 -0 -0 -0 -0 0 0 -0 -1 -2 -3 -2 -2 -1 -1 -1 -2 -2 -2 -2 -3 -3 -3 -2 -1 -0 0 -0 -0
-1 -1 -1 -1 -1 -0 -0 -1 -1 -1 -1 -1 -1 -1 -1 -1 -1 -1 -1 -1 -0 -0 -0 -0 -0 -0 -0 -0 -0 0 1 0 -1 -1 -2 -3 -2 -1 -1 -1 -1 -0 -0 -0 -1 -1 -0 1 1 1 0 -1 -1 -2 -2 -1 -1 -1 -1 -0 -0 -1 -2 -3 -3 -1 -0 0 -0
-1 -1 -1 -1 -1 -0 -0 -1 -1 -1 -1 -1 -1 -1 -1 -1 -1 -1 -1 -1 -0 -0 -0 -0 -0 -0 -0 -0 -1 -0 -0 0 -0 -0 -1 -2 -2 -2 -2 -1 -1 -1 -0 -1 -1 -1 -1 -0 1 2 2 1 -0 -1 -2 -2 -2 -1 -1 -0 0 0 0 -1 -2 -3 -2 -1 0
-1 -1 -1 -1 -1 -0 -0 -0 -0 -1 -1 -1 -2 -1 -1 -1 -1 -0 -0 -0 -0 -0 -0 0 -0 -0 -0 -0 -0 -1 -1 -0 -0 -0 -0 -1 -1 -2 -2 -2 -2 -1 -1 -1 -1 -1 -1 -1 -0 1 2 2 0 -1 -2 -2 -3 -2 -1 -1 -0 1 1 1 -1 -2 -2 -2 -0
-1 -1 -1 -1 -1 -0 -0 -0 -0 -1 -1 -1 -1 -1 -1 -1 -0 -0 -0 -0 -0 -0 -0 -0 -0 -0 -0 -0 -0 -1 -1 -0 -0 -0 -0 -1 -1 -1 -1 -2 -2 -1 -1 -0 -1 -1 -1 -1 -1 -0 1 2 1 -0 -2 -2 -3 -2 -2 -1 -0 0 1 0 -0 -0 -1 -1 -1
-1 -1 -1 -1 -1 -0 0 0 -0 -1 -1 -1 -1 -1 -1 -0 0 0 0 0 0 -0 -0 -1 -1 -1 -0 -0 -1 -1 -0 -0 0 -0 -0 -1 -2 -2 -2 -2 -2 -1 -1 -0 -1 -1 -1 -1 -1 -0 0 1 1 -0 -1 -2 -2 -2 -1 -1 0 1 1 -0 -0 0 1 1 -0
-0 -1 -1 -1 -1 -0 -0 -0 -0 -1 -1 -1 -1 -0 -0 -0 0 0 0 0 -0 -0 -0 -0 -1 -0 -0 -0 -0 -1 -1 -0 -0 -0 -0 -1 -2 -2 -3 -3 -2 -1 -1 -1 -1 -1 -1 -2 -1 -1 -0 1 0 -0 -1 -1 -1 -1 -0 -0 -0 -0 0 1 1 1 1 1 -0
0 -0 -1 -1 -1 -1 -0 -0 -1 -1 -1 -1 -0 -0 0 0 0 0 1 0 -0 -0 -0 -0 -0 -1 -0 -0 -0 -1 -1 -1 -1 -0 -0 -1 -2 -3 -3 -3 -2 -1 -1 -1 -1 -1 -1 -1 -1 -1 -0 0 -0 -1 -1 -1 -1 -0 0 0 -0 0 1 2 2 2 2 1 -0
1 -0 -1 -1 -1 -1 -1 -0 -0 -0 -0 -0 -0 0 0 0 0 1 1 1 0 -0 -0 -0 -1 -1 -1 -2 -2 -1 -1 -2 -1 -1 -0 -0 -2 -3 -3 -3 -2 -1 -0 -0 -1 -1 -1 -1 -1 -1 -1 -0 -0 -1 -1 -0 -0 -1 -1 -0 1 1 2 2 2 2 1 0 -1
1 -0 -1 -1 -1 -1 -1 -0 -0 -0 -0 -0 0 0 0 -0 -0 0 1 1 1 0 -0 -0 -1 -1 -1 -2 -2 -3 -3 -2 -2 -1 -1 -0 -1 -2 -3 -3 -2 -0 0 -0 -0 -1 -1 -1 -1 -1 -1 -1 -1 -1 -2 -1 -0 -1 -1 -1 0 1 2 1 1 0 -1 -2 -3
0 -0 -1 -2 -1 -1 -0 0 0 0 -0 -0 0 1 1 0 0 0 1 1 0 -0 -0 0 -0 -1 -1 -1 -1 -2 -3 -3 -2 -1 -1 -0 -1 -2 -3 -4 -2 0 1 1 -0 -1 -1 -1 -1 -1 -1 -1 -2 -2 -2 -2 -1 -0 -0 -0 -0 0 1 0 -0 -1 -2 -3 -3
-0 -1 -2 -2 -1 -0 0 1 0 0 -0 -0 0 0 0 0 1 1 1 1 0 -0 -1 -0 -0 -0 -1 -1 -1 -1 -2 -2 -2 -2 -1 -0 -1 -2 -3 -4 -3 -0 2 2 0 -1 -1 -1 -1 -1 -1 -2 -2 -2 -2 -2 -1 -1 -1 -0 -0 -1 -1 -1 -1 -1 -2 -2 -2
-1 -1 -2 -2 -1 -0 1 1 0 -0 -0 0 0 0 0 -0 0 1 2 1 -0 -1 -1 -1 -1 -1 -1 -1 -1 -1 -1 -1 -1 -2 -2 -0 -1 -2 -3 -4 -3 -1 1 2 1 -1 -2 -2 -1 -1 -2 -3 -3 -3 -2 -2 -2 -2 -2 -2 -1 -1 -1 -2 -2 -2 -1 -1 -1
-1 -1 -1 -1 -1 0 1 1 0 -0 -0 0 0 0 0 -0 0 1 1 1 -0 -1 -2 -2 -2 -1 -1 -1 -2 -2 -1 -0 -0 -1 -2 -1 -0 -1 -3 -4 -4 -2 0 1 1 -0 -2 -2 -1 -1 -1 -3 -3 -3 -3 -3 -3 -3 -3 -3 -2 -1 -1 -2 -2 -2 -1 -0 -1
-1 -1 -1 -1 -0 0 0 0 0 0 0 0 0 0 0 0 0 1 1 2 0 -1 -2 -2 -2 -2 -1 -1 -2 -3 -2 -1 0 0 -0 -1 -0 -0 -2 -4 -4 -2 -0 1 1 0 -1 -2 -1 -1 -1 -1 -2 -3 -3 -4 -4 -4 -4 -4 -4 -3 -2 -1 -2 -3 -3 -2 -2
-0 -0 -0 -0 0 0 0 0 0 1 1 0 0 0 0 0 0 1 1 2 1 -0 -1 -2 -2 -2 -1 -1 -2 -3 -4 -2 -0 1 1 0 0 0 -0 -2 -2 -2 -0 1 2 1 1 -1 -2 -1 -1 -0 -1 -2 -3 -4 -4 -4 -4 -4 -4 -4 -4 -2 -2 -3 -4 -5 -4
0 1 1 0 0 0 0 0 1 1 1 1 0 0 0 0 -0 0 1 1 1 0 -0 -1 -2 -2 -1 -0 -1 -3 -4 -4 -2 0 2 1 1 1 0 -0 -1 -0 0 1 1 1 1 0 -1 -1 -1 -0 -0 -1 -2 -4 -5 -5 -5 -4 -4 -4 -6 -6 -5 -4 -4 -4 -5
Height
1556 1556 1556 1557 1557 1556 1556 1556 1556 1556 1555 1555 1555 1554 1554 1554 1553 1553 1552 1552 1551 1551 1550 1550 1549 1548 1548 1547 1547 1546 1546 1545 1545 1544 1543 1543 1542 1541 1541 1540 1539 1538 1537 1536 1535 1534 1533 1531 1530 1528 1527 1526 1525 1523 1522 1521 1520 1518 1517 1516 1514 1513 1512 1511 1509 1508 1508 1507 1505
1555 1555 1555 1555 1555 1555 1555 1555 1554 1554 1554 1554 1553 1553 1553 1552 1552 1552 1551 1550 1550 1549 1549 1548 1548 1547 1547 1546 1546 1545 1544 1544 1543 1543 1542 1542 1541 1540 1539 1538 1538 1537 1535 1534 1533 1532 1530 1529 1528 1526 1524 1523 1522 1521 1519 1518 1517 1516 1514 1513 1512 1511 1509 1508 1507 1506 1505 1504 1503
1554 1554 1554 1554 1554 1554 1553 1553 1553 1553 1553 1553 1552 1552 1552 1551 1551 1550 1550 1549 1549 1548 1548 1547 1547 1546 1545 1545 1544 1544 1543 1542 1542 1541 1541 1540 1539 1538 1538 1537 1536 1534 1533 1532 1531 1529 1528 1526 1525 1523 1522 1520 1519 1518 1517 1516 1514 1513 1512 1510 1509 1508 1507 1505 1504 1503 1502 1501 1500
1553 1553 1553 1553 1553 1553 1552 1552 1552 1552 1551 1551 1551 1550 1550 1550 1549 1549 1548 1548 1548 1547 1547 1546 1545 1545 1544 1544 1543 1543 1542 1541 1540 1540 1539 1538 1538 1537 1536 1535 1533 1532 1531 1529 1528 1527 1525 1523 1522 1520 1519 1518 1516 1515 1514 1513 1512 1510 1509 1508 1507 1505 1504 1503 1502 1501 1500 1499 1498
1552 1552 1552 1552 1552 1551 1551 1551 1551 1550 1550 1550 1549 1549 1548 1548 1548 1548 1547 1547 1546 1546 1545 1544 1544 1543 1543 1542 1542 1541 1540 1540 1539 1538 1537 1537 1536 1535 1533 1532 1531 1530 1528 1527 1525 1524 1523 1521 1519 1518 1517 1515 1514 1513 1511 1510 1509 1508 1506 1505 1504 1503 1502 1501 1499 1498 1498 1497 1496
1551 1551 1551 1550 1550 1550 1550 1550 1549 1549 1549 1548 1548 1548 1547 1547 1547 1546 1546 1546 1545 1544 1544 1543 1543 1542 1542 1541 1540 1540 1539 1538 1537 1536 1535 1534 1533 1533 1531 1530 1528 1527 1526 1524 1523 1521 1520 1518 1517 1515 1514 1513 1511 1510 1509 1508 1506 1505 1503 1503 1502 1500 1499 1498 1497 1496 1495 1494 1493
1549 1549 1549 1549 1549 1549 1549 1548 1548 1548 1548 1547 1547 1547 1546 1546 1545 1545 1545 1544 1544 1543 1543 1542 1541 1541 1540 1539 1539 1538 1537 1537 1536 1534 1533 1532 1531 1530 1529 1527 1526 1524 1523 1522 1520 1519 1517 1516 1514 1513 1511 1510 1509 1508 1506 1505 1504 1503 1501 1500 1499 1498 1497 1496 1495 1494 1493 1492 1491
1548 1548 1548 1548 1548 1548 1548 1548 1547 1547 1546 1546 1546 1545 1545 1544 1544 1544 1543 1543 1543 1542 1541 1541 1540 1539 1539 1538 1537 1536 1535 1534 1533 1532 1531 1530 1528 1527 1526 1525 1523 1522 1521 1519 1518 1516 1515 1513 1512 1510 1509 1508 1506 1505 1504 1503 1501 1500 1499 1498 1497 1496 1495 1494 1493 1492 1491 1490 1489
1546 1546 1547 1547 1547 1547 1546 1546 1546 1546 1545 1545 1544 1544 1543 1543 1543 1543 1542 1542 1541 1541 1540 1539 1538 1538 1537 1536 1535 1534 1533 1532 1531 1530 1528 1527 1526 1525 1523 1522 1521 1519 1518 1517 1515 1514 1512 1511 1509 1508 1507 1505 1504 1503 1502 1501 1499 1498 1497 1496 1494 1493 1493 1492 1491 1490 1489 1488 1487
1545 1545 1545 1545 1545 1545 1545 1545 1545 1544 1544 1543 1543 1543 1542 1542 1542 1541 1541 1540 1540 1539 1538 1538 1537 1536 1535 1534 1533 1532 1531 1530 1528 1527 1526 1525 1523 1522 1521 1519 1518 1517 1516 1514 1513 1511 1510 1508 1507 1506 1504 1503 1502 1501 1499 1498 1497 1496 1495 1494 1493 1492 1491 1490 1489 1488 1487 1486 1484
1544 1544 1544 1544 1544 1544 1544 1543 1543 1543 1543 1542 1542 1541 1541 1541 1540 1540 1539 1539 1538 1538 1537 1536 1535 1534 1533 1532 1531 1530 1529 1527 1526 1525 1523 1522 1521 1520 1518 1517 1516 1515 1513 1512 1511 1509 1508 1506 1505 1503 1502 1501 1500 1499 1498 1497 1495 1494 1493 1492 1491 1490 1489 1488 1487 1486 1485 1483 1482
1543 1543 1543 1543 1543 1543 1543 1542 1542 1542 1541 1541 1540 1540 1540 1539 1539 1538 1538 1537 1537 1536 1535 1534 1533 1532 1531 1530 1529 1528 1526 1525 1524 1523 1521 1520 1519 1518 1517 1515 1514 1513 1511 1510 1508 1507 1506 1504 1503 1502 1500 1499 1498 1497 1496 1495 1493 1492 1491 1490 1489 1488 1487 1486 1485 1484 1483 1482 1480
1541 1541 1541 1541 1541 1541 1541 1541 1541 1540 1540 1539 1539 1539 1538 1538 1537 1537 1536 1536 1535 1534 1533 1533 1532 1530 1529 1528 1527 1525 1524 1523 1522 1520 1519 1518 1517 1516 1514 1513 1512 1511 1509 1508 1507 1505 1504 1503 1501 1500 1498 1497 1496 1495 1494 1493 1492 1490 1489 1488 1487 1486 1485 1484 1483 1482 1481 1479 1478
1540 1540 1540 1540 1540 1540 1540 1539 1539 1539 1538 1538 1538 1537 1537 1536 1536 1535 1534 1534 1533 1533 1532 1531 1530 1528 1527 1526 1524 1523 1522 1521 1520 1518 1517 1516 1515 1514 1513 1511 1510 1509 1508 1506 1505 1503 1502 1501 1499 1498 1497 1495 1494 1493 1492 1491 1490 1488 1487 1486 1485 1483 1483 1482 1481 1479 1478 1477 1476
1538 1538 1538 1538 1538 1538 1538 1538 1538 1538 1537 1537 1536 1536 1535 1535 1534 1533 1533 1532 1531 1531 1530 1529 1528 1527 1525 1524 1523 1521 1520 1519 1518 1517 1515 1514 1513 1512 1511 1509 1508 1507 1505 1504 1503 1502 1501 1499 1498 1496 1495 1493 1492 1491 1490 1489 1488 1487 1485 1484 1483 1482 1480 1479 1478 1477 1476 1475 1473
1537 1537 1537 1537 1537 1537 1537 1537 1537 1536 1536 1535 1535 1534 1534 1533 1532 1532 1531 1530 1529 1529 1528 1527 1526 1525 1523 1522 1521 1519 1518 1517 1516 1515 1513 1512 1511 1510 1508 1507 1506 1505 1503 1502 1501 1500 1499 1498 1496 1494 1493 1492 1490 1489 1488 1487 1486 1484 1483 1482 1481 1479 1478 1477 1476 1475 1474 1473 1471
1536 1536 1536 1536 1536 1536 1536 1535 1535 1535 1534 1534 1533 1533 1532 1531 1531 1530 1529 1528 1528 1527 1526 1525 1524 1523 1521 1520 1519 1518 1516 1515 1514 1513 1512 1510 1509 1508 1507 1505 1504 1503 1502 1500 1499 1498 1497 1495 1494 1493 1491 1490 1488 1487 1486 1484 1483 1482 1481 1480 1478 1478 1476 1475 1474 1473 1472 1470 1469
1535 1535 1535 1535 1535 1534 1534 1534 1533 1533 1533 1532 1532 1531 1530 1530 1529 1528 1528 1527 1526 1525 1524 1523 1522 1520 1519 1518 1517 1516 1514 1513 1512 1511 1510 1508 1507 1506 1504 1503 1502 1501 1500 1498 1497 1496 1494 1493 1492 1490 1489 1488 1486 1485 1483 1482 1481 1480 1478 1477 1476 1475 1474 1473 1472 1471 1469 1468 1467
1533 1533 1533 1533 1533 1533 1533 1532 1532 1531 1531 1530 1530 1529 1529 1528 1528 1527 1526 1525 1524 1523 1522 1521 1519 1518 1517 1516 1515 1514 1513 1511 1510 1509 1508 1507 1505 1504 1503 1501 1500 1499 1498 1496 1495 1493 1492 1491 1489 1488 1487 1485 1484 1483 1481 1480 1478 1477 1476 1475 1473 1473 1471 1470 1469 1468 1467 1466 1465
1532 1532 1532 1532 1532 1532 1531 1531 1530 1530 1529 1529 1528 1528 1527 1527 1526 1525 1524 1523 1522 1521 1520 1518 1517 1516 1515 1514 1513 1512 1511 1509 1508 1507 1506 1504 1503 1502 1501 1499 1498 1497 1496 1494 1493 1492 1490 1488 1487 1486 1484 1483 1482 1480 1478 1477 1476 1475 1473 1472 1471 1470 1468 1468 1467 1466 1464 1463 1463
1531 1531 1531 1531 1530 1530 1529 1529 1528 1528 1528 1527 1527 1526 1525 1525 1524 1523 1522 1521 1520 1519 1518 1516 1515 1514 1513 1512 1511 1510 1508 1508 1506 1505 1503 1503 1501 1500 1499 1498 1496 1495 1494 1493 1491 1489 1488 1487 1485 1483 1482 1480 1479 1478 1476 1474 1473 1472 1471 1469 1468 1467 1466 1465 1464 1463 1462 1461 1460
1529 1529 1529 1529 1529 1528 1528 1527 1527 1527 1526 1526 1525 1524 1524 1523 1522 1521 1520 1519 1518 1517 1516 1514 1513 1512 1511 1510 1508 1508 1506 1505 1504 1503 1502 1500 1499 1498 1497 1496 1494 1493 1492 1490 1489 1487 1486 1484 1483 1481 1480 1478 1476 1475 1473 1472 1471 1469 1468 1467 1466 1465 1463 1463 1462 1461 1460 1459 1458
1528 1528 1528 1527 1527 1527 1526 1526 1525 1525 1524 1524 1523 1523 1522 1521 1520 1519 1518 1517 1516 1515 1513 1513 1511 1510 1509 1508 1507 1505 1504 1503 1502 1501 1500 1498 1497 1496 1495 1494 1492 1491 1490 1488 1487 1485 1483 1482 1480 1478 1477 1475 1474 1472 1471 1470 1468 1467 1466 1464 1463 1462 1461 1460 1459 1458 1458 1457 1456
1527 1526 1526 1526 1525 1525 1524 1524 1524 1523 1523 1522 1522 1521 1520 1519 1518 1517 1516 1515 1514 1513 1512 1510 1509 1508 1507 1506 1504 1503 1502 1501 1500 1498 1498 1497 1495 1494 1493 1492 1491 1489 1488 1486 1485 1483 1481 1479 1478 1476 1475 1473 1472 1470 1469 1468 1467 1465 1464 1463 1461 1460 1459 1458 1457 1456 1455 1454 1453
1525 1525 1524 1524 1524 1523 1523 1523 1522 1522 1521 1520 1520 1519 1518 1517 1516 1515 1514 1513 1512 1511 1510 1508 1507 1506 1505 1504 1503 1501 1500 1499 1498 1496 1495 1494 1493 1492 1491 1490 1488 1487 1486 1484 1483 1482 1480 1478 1476 1474 1473 1472 1470 1469 1468 1466 1465 1464 1463 1461 1460 1458 1457 1456 1455 1454 1453 1452 1451
1523 1523 1523 1523 1522 1522 1522 1521 1521 1520 1519 1518 1518 1517 1516 1515 1514 1513 1512 1511 1510 1509 1508 1506 1505 1504 1503 1502 1501 1499 1498 1497 1496 1494 1493 1492 1491 1490 1489 1488 1487 1485 1484 1483 1481 1480 1478 1477 1475 1473 1472 1470 1468 1467 1465 1464 1463 1462 1461 1459 1458 1457 1455 1453 1452 1451 1450 1449 1449
1522 1522 1521 1521 1521 1520 1520 1519 1519 1518 1517 1517 1516 1515 1514 1513 1512 1511 1510 1508 1508 1506 1505 1504 1503 1502 1501 1500 1498 1497 1496 1495 1494 1493 1491 1490 1489 1488 1487 1486 1485 1483 1482 1481 1479 1478 1476 1475 1473 1472 1470 1468 1467 1465 1463 1462 1461 1459 1458 1457 1456 1455 1453 1452 1450 1449 1448 1447 1446
1520 1520 1520 1519 1519 1519 1518 1518 1517 1516 1515 1514 1513 1513 1512 1511 1510 1508 1508 1506 1505 1504 1503 1502 1501 1500 1499 1498 1496 1495 1494 1493 1492 1491 1489 1488 1487 1486 1485 1483 1483 1481 1480 1479 1477 1476 1474 1473 1471 1470 1468 1467 1465 1463 1462 1460 1458 1457 1456 1455 1454 1453 1451 1450 1448 1447 1446 1444 1443
1519 1518 1518 1518 1518 1517 1517 1516 1515 1514 1513 1512 1511 1510 1509 1508 1508 1506 1505 1504 1503 1502 1501 1500 1498 1498 1497 1495 1494 1493 1492 1491 1490 1489 1488 1486 1485 1484 1483 1482 1480 1479 1478 1477 1475 1474 1472 1471 1469 1468 1466 1465 1463 1461 1460 1458 1457 1455 1454 1453 1451 1450 1449 1448 1446 1445 1444 1443 1442
1517 1517 1517 1516 1516 1516 1515 1514 1513 1512 1511 1510 1509 1508 1507 1506 1505 1504 1503 1502 1501 1499 1498 1498 1496 1495 1494 1493 1492 1491 1490 1489 1488 1487 1485 1484 1483 1482 1481 1480 1478 1477 1476 1475 1473 1472 1470 1469 1467 1466 1464 1463 1461 1459 1458 1456 1454 1453 1452 1450 1449 1448 1447 1446 1444 1443 1442 1441 1439
1516 1515 1515 1514 1514 1513 1513 1512 1511 1510 1509 1508 1507 1506 1505 1504 1503 1502 1501 1500 1498 1497 1496 1495 1494 1493 1492 1491 1490 1489 1488 1487 1486 1485 1483 1482 1481 1479 1478 1478 1476 1475 1474 1473 1471 1469 1468 1467 1465 1463 1462 1461 1459 1457 1456 1454 1453 1451 1449 1448 1447 1446 1445 1443 1442 1441 1440 1439 1438
1514 1514 1513 1513 1512 1512 1511 1510 1509 1508 1507 1506 1505 1504 1503 1502 1501 1500 1499 1498 1496 1495 1494 1493 1492 1491 1490 1489 1488 1487 1486 1485 1484 1483 1482 1480 1479 1478 1476 1475 1474 1473 1472 1470 1469 1467 1466 1464 1463 1461 1460 1458 1457 1455 1453 1452 1450 1449 1447 1446 1445 1443 1443 1442 1440 1439 1438 1437 1436
1513 1512 1511 1511 1510 1509 1509 1508 1507 1506 1505 1504 1503 1502 1501 1500 1499 1498 1497 1495 1494 1493 1492 1491 1490 1489 1488 1487 1486 1485 1484 1483 1482 1481 1479 1478 1477 1475 1474 1473 1472 1471 1470 1468 1467 1465 1464 1462 1461 1459 1458 1456 1454 1453 1451 1449 1448 1446 1445 1443 1443 1442 1441 1439 1438 1437 1436 1435 1433
1511 1510 1509 1509 1508 1507 1507 1506 1505 1504 1503 1502 1501 1500 1499 1498 1497 1495 1494 1493 1492 1491 1490 1489 1488 1487 1486 1485 1484 1483 1482 1481 1480 1479 1478 1476 1475 1473 1472 1471 1470 1469 1468 1466 1465 1463 1462 1460 1458 1457 1455 1454 1452 1450 1448 1447 1445 1444 1443 1441 1440 1439 1438 1437 1436 1435 1433 1432 1431
1509 1508 1507 1507 1506 1505 1504 1503 1503 1502 1501 1500 1498 1498 1497 1496 1494 1493 1493 1491 1490 1489 1488 1487 1486 1485 1484 1483 1482 1481 1479 1478 1477 1476 1475 1474 1473 1471 1470 1469 1468 1467 1466 1464 1463 1461 1459 1458 1456 1455 1453 1451 1449 1448 1446 1445 1443 1442 1441 1439 1438 1437 1436 1435 1433 1432 1431 1430 1428
1507 1506 1505 1504 1504 1503 1502 1501 1500 1499 1498 1498 1497 1496 1494 1493 1493 1491 1490 1489 1488 1487 1486 1485 1484 1483 1482 1481 1480 1479 1478 1476 1475 1474 1473 1472 1471 1469 1468 1466 1466 1465 1464 1462 1460 1459 1457 1456 1454 1453 1451 1449 1447 1446 1444 1443 1441 1440 1438 1437 1436 1434 1433 1432 1431 1429 1428 1428 1426
1505 1504 1503 1502 1502 1501 1500 1499 1498 1497 1496 1495 1494 1493 1492 1491 1490 1489 1488 1487 1486 1485 1483 1483 1482 1481 1480 1479 1478 1477 1476 1474 1473 1472 1471 1470 1468 1467 1465 1464 1463 1462 1461 1460 1458 1457 1455 1453 1452 1450 1449 1447 1445 1444 1442 1441 1439 1438 1436 1435 1433 1432 1431 1429 1428 1427 1426 1425 1424
1503 1502 1501 1500 1500 1499 1498 1497 1496 1495 1494 1493 1492 1491 1490 1489 1488 1487 1486 1485 1484 1483 1481 1480 1479 1478 1478 1477 1475 1474 1473 1473 1472 1470 1469 1468 1466 1465 1463 1462 1460 1460 1459 1458 1456 1454 1453 1451 1450 1448 1447 1445 1443 1442 1441 1439 1437 1436 1434 1432 1431 1429 1428 1427 1426 1425 1423 1423 1422
1501 1500 1499 1498 1498 1497 1496 1495 1494 1493 1492 1491 1490 1489 1488 1487 1486 1485 1484 1483 1482 1480 1479 1478 1477 1476 1475 1474 1473 1472 1471 1470 1470 1468 1467 1466 1464 1463 1461 1460 1458 1457 1457 1455 1454 1452 1451 1449 1448 1446 1445 1444 1442 1441 1439 1437 1435 1433 1432 1430 1428 1427 1426 1425 1424 1423 1421 1420 1420
1499 1498 1497 1496 1495 1494 1493 1493 1492 1491 1490 1489 1488 1487 1486 1485 1484 1483 1482 1481 1480 1478 1477 1476 1475 1474 1473 1472 1471 1470 1468 1468 1467 1466 1465 1464 1462 1461 1459 1458 1456 1455 1454 1453 1452 1450 1448 1447 1446 1444 1443 1442 1441 1439 1438 1436 1434 1432 1430 1428 1427 1425 1423 1422 1421 1420 1419 1417 1417
1497 1496 1495 1494 1493 1492 1491 1490 1489 1488 1488 1487 1485 1484 1483 1483 1482 1481 1480 1478 1477 1476 1475 1474 1473 1472 1471 1470 1468 1467 1466 1465 1465 1464 1463 1462 1460 1459 1458 1456 1454 1453 1452 1451 1450 1448 1446 1445 1444 1443 1442 1440 1439 1438 1436 1434 1432 1430 1428 1427 1425 1423 1421 1419 1418 1418 1417 1416 1415